Location: Bow
(51.5261°N, 0.0167°W)
Time: 22:54:51
(UTC+00:00)

Meteor 2-13 Rocket - Pass Details

Date: 18 September 2020
Orbit: 935 x 958 km, 82.5° (Epoch: 30 October)

Event Time Altitude Azimuth Distance (km) Brightness Sun altitude
Rises 19:56:10 0° 350° (N) 3,653 8.0 -17.2°
Reaches altitude 10° 19:58:41 10° 352° (N) 2,703 7.3 -17.6°
Maximum altitude 20:04:53 74° 78° (ENE) 999 4.4 -18.5°
Enters shadow 20:09:03 22° 160° (SSE) 1,964 5.7 -19.0°
